Home > Time Zones > World Clock > Weather > Belgium > Spa > Past weeks

Flag for Belgium Weather past 2 weeks in Spa, Belgium

Now
52 °F

Low clouds.


Feels Like: 50 °F
Forecast: 46 / 62 °F
Wind: 6 mph from West

Location: Spa / La Sauveniere

Current Time: Jul 8, 2015 at 8:49:47 AM

Latest Report: Jul 8, 2015 at 8:00 AM


Visibility: 11 mi

Pressure: 29.90 "Hg

Humidity: 88%

Dew point: 48 °F

Location of SpaLocation

Historic Weather in Spa — Graph

°F

Spa temperature yesterday

Maximum temperature yesterday: 81 °F (at 1:00 PM)
Minimum temperature yesterday: 63 °F (at 11:00 PM)
Average temperature yesterday: 69 °F

Past Weeks' High & Low Weather Summary

 TemperatureHumidityPressure
High94 °F (Jul 2, 5:00 PM)97% (Jun 23, 8:00 AM)30.27 "Hg (Jun 23, 8:00 AM)
Low46 °F (Jun 23, 7:00 AM)29% (Jun 30, 6:00 PM)29.80 "Hg (Jul 7, 8:00 PM)
Average67 °F65%30.10 "Hg
* Reported Jun 23 7:00 AM — Jul 8 7:00 AM, Spa, Weather by CustomWeather, © 2015

Note: Actual official high and low records may vary slightly from our data, if they occured in-between our weather recording intervals... More about our weather records

Advertising

Spa weather history for previous 24 hours

 ConditionsComfort  
Time TempWeatherWind HumidityBarometerVisibility
7:00 AM
Wed, Jul 8
50 °FLow clouds.6 mph91%29.90 "Hg9 mi
6:00 AM50 °FLow clouds.5 mph93%29.90 "Hg9 mi
4:00 AM50 °FPassing clouds.6 mph92%29.89 "Hg11 mi
3:00 AM51 °FClear.6 mph92%29.88 "Hg18 mi
2:00 AM53 °FPassing clouds.7 mph91%29.87 "Hg19 mi
1:00 AM54 °FOvercast.3 mph94%29.87 "Hg19 mi
12:00 AM56 °FLight rain. Low clouds.6 mph94%29.88 "Hg6 mi
11:00 PM
Tue, Jul 7
63 °FDrizzle. Overcast.5 mph81%29.81 "Hg7 mi
10:00 PM64 °FPassing clouds.3 mph74%29.80 "Hg25 mi
9:00 PM65 °FSunny.3 mph77%29.80 "Hg19 mi
8:00 PM68 °FSunny.3 mph73%29.80 "Hg25 mi
7:00 PM66 °FSunny.5 mph74%29.81 "Hg22 mi
6:00 PM64 °FSunny.6 mph78%29.83 "Hg22 mi
5:00 PM64 °FLight rain. Low clouds.6 mph84%29.84 "Hg7 mi
4:00 PM69 °FLight rain. Overcast.3 mph76%29.83 "Hg7 mi
3:00 PM77 °FSunny.5 mph52%29.80 "Hg22 mi
2:00 PM80 °FPartly sunny.6 mph48%29.81 "Hg22 mi
1:00 PM81 °FSunny.5 mph45%29.81 "Hg19 mi
12:00 PM79 °FScattered clouds.6 mph45%29.83 "Hg19 mi
11:00 AM77 °FSunny.6 mph47%29.85 "Hg14 mi
10:00 AM75 °FSunny.7 mph49%29.87 "Hg13 mi
9:00 AM72 °FPartly sunny.7 mph51%29.90 "Hg19 mi
8:00 AM68 °FSunny.6 mph50%29.93 "Hg25 mi
Weather by CustomWeather, © 2015

See weather overviewHow to use our weather pages